Weather in Khondergey

Russia / Tyva Republic     51°07′35″N   91°37′08″E
temp.,
°C
wind,
m/s
gust,
m/s
humid.,
%
clouds,
%
prec.,
mm/h
press.,
hPa
HPBL,
m
5 march, fri
fri501:00−17s118024 0.0 103021
04:00−19ssw00841 0.0 102920
07:00−20sw01876 0.0 102920
10:00−16nnw228574 0.0 102869
13:00−12nnw218187 0.0 1025186
16:00−10nw1177100 0.0 1023282
19:00−14w1188100 0.0 102721
22:00−17ene119026 0.0 103120
6 march, sat
sat601:00−17ene018413 0.0 103420
04:00−19nnw119322 0.0 103320
07:00−20ne009325 0.0 103420
10:00−15nnw119096 0.0 103258
13:00−11nnw218396 0.0 1029200
16:00−9nw2182100 0.0 1025192
19:00−15nnw018996 0.0 102721
22:00−16s118467 0.0 102721
7 march, sun
sun701:00−18ssw018334 0.0 102720
04:00−19wnw118440 0.0 102520
07:00−20ene018423 0.0 102720
10:00−15nnw118337 0.0 102653
13:00−11nw117539 0.0 1024179
16:00−9w117958 0.0 1023123
19:00−13wnw008279 0.0 102621
22:00−16e008649 0.0 102821
8 march, mon
mon801:00−17nnw009145 0.0 102920
04:00−18sw009355 0.0 102920
07:00−19sw009450 0.0 103020
10:00−14nnw11910 0.0 102842
13:00−10wnw11831 0.0 1025162
16:00−8wnw11802 0.0 1023140
19:00−14sw00862 0.0 102421
22:00−15sse008345 0.0 102421
9 march, tue
tue901:00−13se018164 0.0 102421
04:00−14nnw118699 0.0 102520
07:00−15ene117969 0.0 102820
10:00−11n00810 0.0 102831
13:00−7nnw11760 0.0 1027177
16:00−6sw11810 0.0 1026120
19:00−11sse11890 0.0 102821
22:00−13ne119233 0.0 102921